Regional Weather Roundup
Issued by NWS

Home | Current Version | Previous Version | Text Only | Print | Product List | Glossary On
Versions: 1 2 3 4 5 6 7 8 9 10 11 12 13 14 15 16 17 18 19 20 21 22 23 24 25 26 27 28 29 30 31 32 33 34 35 36 37 38 39 40 41 42 43 44 45 46 47 48 49 50
000
ASUS44 KFWD 041601
RWRTX
NORTH TEXAS HOURLY WEATHER ROUNDUP
NATIONAL WEATHER SERVICE FORT WORTH TX
1100 AM CDT FRI SEP 04 2015

NOTE: "FAIR" INDICATES FEW OR NO CLOUDS BELOW 12,000 FEET WITH NO
SIGNIFICANT WEATHER AND/OR OBSTRUCTIONS TO VISIBILITY.

TXZ118-119-041700-
DALLAS/FORT WORTH METROPLEX

CITY           SKY/WX    TMP DP  RH WIND       PRES   REMARKS
DFW AIRPORT    MOSUNNY   88  71  57 S8        29.97R HX  94
DALLAS LOVE    MOSUNNY   87  71  58 SW8       29.97R HX  93
FTW MEACHAM    SUNNY     87  71  58 SE8       29.97R HX  93
DAL-EXECUTIVE  PTSUNNY   85  70  60 VRB3      29.98R
FTW-ALLIANCE   MOSUNNY   88  71  57 SE8       29.97R HX  94
FTW-NAS-JRB    MOSUNNY   87  72  60 SE8       29.97S HX  93
FTW-SPINKS     PTSUNNY   86  72  62 S6        29.99R HX  92
ARLINGTON      MOSUNNY   86  69  56 S7        29.97S HX  90
GRAND PRAIRIE  SUNNY     84  72  65 S7        29.99R
ADDISON        MOSUNNY   86  70  58 SW5       30.00R HX  90
LANCASTER      SUNNY     86  68  55 S7        29.99R
$$

TXZ091>094-102>105-117-120-121-131>134-041700-
NORTH CENTRAL TEXAS

CITY           SKY/WX    TMP DP  RH WIND       PRES   REMARKS
BRIDGEPORT     SUNNY     88  70  54 SE8       29.99R HX  93
DENTON         SUNNY     87  71  58 SE8       29.97S HX  93
MCKINNEY       MOSUNNY   86  70  58 S6        29.98R HX  90
TERRELL        PTSUNNY   86  72  62 S9        29.98S HX  92
WAXAHACHIE     MOSUNNY   85  72  63 S3        29.99S HX  91
CLEBURNE       MOSUNNY   86  73  66 S9        29.99S HX  93
$$

TXZ083>090-098>101-113>116-127>130-139>142-154-155-041700-
WESTERN NORTH TEXAS

CITY           SKY/WX    TMP DP  RH WIND       PRES   REMARKS
WICHITA FALLS  SUNNY     88  68  51 S13G18    29.97R HX  91
WF-KICKAPOO    SUNNY     89  66  46 S8G16     29.98R HX  92
VERNON         SUNNY     88  59  36 S13       29.97S
ABILENE        SUNNY     85  67  54 S14       29.99R
ABILENE-DYESS  SUNNY     87  67  51 S13       29.98R HX  90
MINERAL WELLS  SUNNY     85  70  60 VRB5      29.96S
STEPHENVILLE   SUNNY     84  69  60 S8        30.02R
COMANCHE       CLOUDY    88  70  55 S7G16     29.99S HX  92
COLEMAN        SUNNY     83  69  62 S9        30.00S
$$

TXZ143>147-156>162-174-175-041700-
CENTRAL TEXAS

CITY           SKY/WX    TMP DP  RH WIND       PRES   REMARKS
WACO           SUNNY     87  71  58 SE8       29.97R HX  93
WACO-MCGREGOR  PTSUNNY   86  71  60 S10       29.97S HX  91
CORSICANA      MOSUNNY   87  71  58 SE6       29.99S HX  93
MEXIA          MOSUNNY   84  71  66 S8G16     29.97S
HEARNE         SUNNY     84  73  69 S7        29.98S HX  90
TEMPLE         PTSUNNY   86  72  62 S7        29.97S HX  92
KILLEEN        MOSUNNY   87  71  59 S12       29.97S HX  92
KILLEEN-SKYLRK PTSUNNY  N/A N/A N/A SW7       29.96S
FORT HOOD      MOSUNNY   86  71  59 SE12      29.96S HX  92
HAMILTON       PTSUNNY   86  68  54 S7        30.00S
$$

TXZ095>097-106>112-122>126-135>138-148>153-164>167-041700-
EAST TEXAS

CITY           SKY/WX    TMP DP  RH WIND       PRES   REMARKS
PARIS          MOSUNNY   88  68  51 S7        30.00S HX  91
MINEOLA        SUNNY     86  73  66 S5        30.00S HX  93
TYLER          MOSUNNY   86  70  58 S8        29.99S HX  90
LONGVIEW       MOSUNNY   86  72  62 S6        29.99S HX  92
MARSHALL       SUNNY     88  77  68 S6        30.02S HX 100
ATHENS         PTSUNNY   82  70  65 CALM      29.97F
PALESTINE      PTSUNNY   85  73  67 SE7       30.00R HX  92
JACKSONVILLE   MOSUNNY   85  71  63 CALM      30.02S HX  90
NACOGDOCHES    MOSUNNY   84  73  70 SW7       29.99S HX  91
LUFKIN         MOSUNNY   84  73  69 SW8       29.99R HX  90
$$

SUPPLEMENTAL OBSERVATIONS (CENTRAL)

CITY           SKY/WX    TMP DP  RH WIND       PRES   REMARKS
$$

SUPPLEMENTAL OBSERVATIONS (WEST)

CITY           SKY/WX    TMP DP  RH WIND       PRES   REMARKS
$$

SUPPLEMENTAL OBSERVATIONS (EAST)

CITY           SKY/WX    TMP DP  RH WIND       PRES   REMARKS
$$

SUPPLEMENTAL OBSERVATIONS ARE A COLLECTION OF AUTOMATED INSTRUMENTS
THAT ARE MAINTAINED BY A VARIETY OF FEDERAL AND STATE AGENCIES.
CERTAIN ELEMENTS...SUCH AS HUMIDITY VALUES AND SUSTAINED WIND
SPEEDS...MAY BE APPROXIMATED.




USA.gov is the U.S. government's official web portal to all federal, state and local government web resources and services.